H1 CPF 2 NER 2021 4 15 9 105 01 glonass142 H2 2001801 9142 45358 2021 4 15 0 0 0 2021 4 18 23 45 0 900 1 1 0 0 0 1 H9 10 0 59319 0.00000 0 -24979011.857 -157053.638 5197045.988 10 0 59319 900.00000 0 -24136523.061 -104061.592 8275719.870 10 0 59319 1800.00000 0 -22930598.701 -184126.192 11193779.023 10 0 59319 2700.00000 0 -21399967.156 -441263.565 13894636.220 10 0 59319 3600.00000 0 -19593482.800 -911056.185 16325939.173 10 0 59319 4500.00000 0 -17568159.328 -1618915.056 18440579.180 10 0 59319 5400.00000 0 -15386882.144 -2578774.981 20197596.708 10 0 59319 6300.00000 0 -13115895.057 -3792278.203 21562967.178 10 0 59319 7200.00000 0 -10822165.758 -5248481.021 22510252.616 10 0 59319 8100.00000 0 -8570739.064 -6924096.275 23021107.481 10 0 59319 9000.00000 0 -6422187.056 -8784262.485 23085629.730 10 0 59319 9900.00000 0 -4430261.099 -10783808.529 22702550.849 10 0 59319 10800.00000 0 -2639842.057 -12868962.450 21879261.526 10 0 59319 11700.00000 0 -1085272.744 -14979434.569 20631672.362 10 0 59319 12600.00000 0 210859.112 -17050789.487 18983911.969 10 0 59319 13500.00000 0 1238437.680 -19017009.492 16967867.566 10 0 59319 14400.00000 0 2000006.522 -20813143.616 14622576.052 10 0 59319 15300.00000 0 2510419.494 -22377932.626 11993476.345 10 0 59319 16200.00000 0 2795970.115 -23656300.761 9131536.468 10 0 59319 17100.00000 0 2893036.268 -24601610.159 6092271.348 10 0 59319 18000.00000 0 2846297.477 -25177583.211 2934669.816 10 0 59319 18900.00000 0 2706600.149 -25359811.699 -279948.774 10 0 59319 19800.00000 0 2528561.333 -25136788.620 -3489126.203 10 0 59319 20700.00000 0 2368012.730 -24510418.401 -6630481.845 10 0 59319 21600.00000 0 2279393.809 -23495983.034 -9642929.798 10 0 59319 22500.00000 0 2313205.295 -22121564.843 -12467872.421 10 0 59319 23400.00000 0 2513631.820 -20426949.207 -15050346.214 10 0 59319 24300.00000 0 2916435.611 -18462052.954 -17340097.116 10 0 59319 25200.00000 0 3547211.506 -16284944.143 -19292563.724 10 0 59319 26100.00000 0 4420078.312 -13959536.013 -20869748.783 10 0 59319 27000.00000 0 5536863.001 -11553051.705 -22040961.763 10 0 59319 27900.00000 0 6886813.372 -9133365.824 -22783417.990 10 0 59319 28800.00000 0 8446852.323 -6766334.017 -23082682.692 10 0 59319 29700.00000 0 10182364.073 -4513221.971 -22932951.480 10 0 59319 30600.00000 0 12048480.194 -2428340.812 -22337161.991 10 0 59319 31500.00000 0 13991812.101 -556987.211 -21306934.673 10 0 59319 32400.00000 0 15952557.990 1066226.646 -19862344.024 10 0 59319 33300.00000 0 17866896.264 2418584.474 -18031524.821 10 0 59319 34200.00000 0 19669565.360 3489969.221 -15850121.094 10 0 59319 35100.00000 0 21296521.998 4283030.384 -13360588.640 10 0 59319 36000.00000 0 22687566.431 4812809.872 -10611364.768 10 0 59319 36900.00000 0 23788824.560 5105843.821 -7655921.642 10 0 59319 37800.00000 0 24554982.751 5198779.826 -4551721.948 10 0 59319 38700.00000 0 24951181.607 5136569.538 -1359097.539 10 0 59319 39600.00000 0 24954489.257 4970314.299 1859926.627 10 0 59319 40500.00000 0 24554892.547 4754856.145 5042839.901 10 0 59319 41400.00000 0 23755764.830 4546217.036 8127860.909 10 0 59319 42300.00000 0 22573791.110 4398995.305 11055136.012 10 0 59319 43200.00000 0 21038354.138 4363829.937 13767897.957 10 0 59319 44100.00000 0 19190407.503 4485040.068 16213562.326 10 0 59319 45000.00000 0 17080883.208 4798539.421 18344740.817 10 0 59319 45900.00000 0 14768700.322 5330113.666 20120152.363 10 0 59319 46800.00000 0 12318457.639 6094133.206 21505415.228 10 0 59319 47700.00000 0 9797906.078 7092755.632 22473705.619 10 0 59319 48600.00000 0 7275305.303 8315651.575 23006270.970 10 0 59319 49500.00000 0 4816773.428 9740266.054 23092788.832 10 0 59319 50400.00000 0 2483738.821 11332605.088 22731564.939 10 0 59319 51300.00000 0 330598.524 13048515.777 21929566.993 10 0 59319 52200.00000 0 -1597320.819 14835407.625 20702293.440 10 0 59319 53100.00000 0 -3265415.936 16634344.490 19073479.429 10 0 59319 54000.00000 0 -4651006.217 18382421.156 17074644.948 10 0 59319 54900.00000 0 -5744030.318 20015326.415 14744492.968 10 0 59319 55800.00000 0 -6547211.674 21469986.404 12128168.262 10 0 59319 56700.00000 0 -7075686.633 22687178.220 9276390.225 10 0 59319 57600.00000 0 -7356111.180 23614004.518 6244475.586 10 0 59319 58500.00000 0 -7425284.118 24206125.131 3091269.348 10 0 59319 59400.00000 0 -7328344.931 24429651.437 -121995.686 10 0 59319 60300.00000 0 -7116622.769 24262623.111 -3332888.780 10 0 59319 61200.00000 0 -6845227.778 23696004.043 -6478997.073 10 0 59319 62100.00000 0 -6570487.237 22734154.454 -9499143.247 10 0 59319 63000.00000 0 -6347335.734 21394758.110 -12334580.772 10 0 59319 63900.00000 0 -6226770.697 19708206.682 -14930142.635 10 0 59319 64800.00000 0 -6253482.001 17716466.294 -17235320.607 10 0 59319 65700.00000 0 -6463756.992 15471473.100 -19205253.421 10 0 59319 66600.00000 0 -6883750.528 13033124.740 -20801604.144 10 0 59319 67500.00000 0 -7528194.178 10466951.469 -21993309.416 10 0 59319 68400.00000 0 -8399600.044 7841564.058 -22757185.897 10 0 59319 69300.00000 0 -9487993.659 5225985.029 -23078382.097 10 0 59319 70200.00000 0 -10771188.022 2686974.402 -22950666.994 10 0 59319 71100.00000 0 -12215587.940 286461.151 -22376549.985 10 0 59319 72000.00000 0 -13777491.404 -1920812.905 -21367229.987 10 0 59319 72900.00000 0 -15404833.775 -3889339.230 -19942374.891 10 0 59319 73800.00000 0 -17039301.858 -5584494.277 -18129735.686 10 0 59319 74700.00000 0 -18618729.200 -6983728.886 -15964602.918 10 0 59319 75600.00000 0 -20079672.127 -8077247.020 -13489116.115 10 0 59319 76500.00000 0 -21360058.246 -8868147.005 -10751439.707 10 0 59319 77400.00000 0 -22401796.007 -9372020.966 -7804821.713 10 0 59319 78300.00000 0 -23153235.488 -9616031.051 -4706553.793 10 0 59319 79200.00000 0 -23571376.828 -9637503.061 -1516853.207 10 0 59319 80100.00000 0 -23623733.309 -9482098.330 1702311.020 10 0 59319 81000.00000 0 -23289770.782 -9201642.487 4888424.484 10 0 59319 81900.00000 0 -22561862.953 -8851703.985 7979642.500 10 0 59319 82800.00000 0 -21445722.570 -8489025.645 10915989.887 10 0 59319 83700.00000 0 -19960290.576 -8168918.373 13640522.065 10 0 59319 84600.00000 0 -18137088.017 -7942727.478 16100425.049 10 0 59319 85500.00000 0 -16019057.956 -7855478.620 18248033.265 10 0 59320 0.00000 0 -13658945.745 -7943802.522 20041746.104 10 0 59320 900.00000 0 -11117284.706 -8234226.059 21446826.385 10 0 59320 1800.00000 0 -8460071.252 -8741900.260 22436065.703 10 0 59320 2700.00000 0 -5756224.743 -9469820.616 22990305.275 10 0 59320 3600.00000 0 -3074936.902 -10408570.439 23098802.646 10 0 59320 4500.00000 0 -483019.744 -11536599.828 22759437.822 10 0 59320 5400.00000 0 1957639.399 -12821028.652 21978755.220 10 0 59320 6300.00000 0 4192411.475 -14218941.016 20771840.543 10 0 59320 7200.00000 0 6175952.294 -15679118.107 19162034.628 10 0 59320 8100.00000 0 7873839.129 -17144138.098 17180489.144 10 0 59320 9000.00000 0 9263750.244 -18552756.353 14865571.798 10 0 59320 9900.00000 0 10336138.970 -19842467.171 12262131.620 10 0 59320 10800.00000 0 11094374.822 -20952140.399 9420637.526 10 0 59320 11700.00000 0 11554346.257 -21824622.610 6396205.928 10 0 59320 12600.00000 0 11743541.986 -22409193.480 3247535.664 10 0 59320 13500.00000 0 11699649.875 -22663773.705 35770.451 10 0 59320 14400.00000 0 11468732.748 -22556790.749 -3176689.125 10 0 59320 15300.00000 0 11103058.363 -22068622.757 -6327400.717 10 0 59320 16200.00000 0 10658675.811 -21192558.637 -9355098.385 10 0 59320 17100.00000 0 10192841.322 -19935232.444 -12200889.486 10 0 59320 18000.00000 0 9761403.158 -18316512.514 -14809406.240 10 0 59320 18900.00000 0 9416257.041 -16368848.866 -17129888.871 10 0 59320 19800.00000 0 9202980.631 -14136105.184 -19117178.717 10 0 59320 20700.00000 0 9158747.890 -11671923.647 -20732601.393 10 0 59320 21600.00000 0 9310612.278 -9037690.369 -21944722.629 10 0 59320 22500.00000 0 9674232.027 -6300186.069 -22729961.964 10 0 59320 23400.00000 0 10253091.896 -3529019.803 -23073052.334 10 0 59320 24300.00000 0 11038254.758 -793952.485 -22967336.806 10 0 59320 25200.00000 0 12008653.957 1837778.578 -22414896.834 10 0 59320 26100.00000 0 13131914.413 4304023.040 -21426509.722 10 0 59320 27000.00000 0 14365668.180 6550062.508 -20021436.267 10 0 59320 27900.00000 0 15659309.252 8530640.251 -18227042.827 10 0 59320 28800.00000 0 16956113.791 10211591.830 -16078265.257 10 0 59320 29700.00000 0 18195636.516 11571009.769 -13616925.222 10 0 59320 30600.00000 0 19316282.255 12599894.986 -10890912.302 10 0 59320 31500.00000 0 20257944.184 13302269.164 -7953248.026 10 0 59320 32400.00000 0 20964597.390 13694745.076 -4861050.333 10 0 59320 33300.00000 0 21386738.300 13805574.636 -1674418.921 10 0 59320 34200.00000 0 21483566.949 13673216.375 1544736.296 10 0 59320 35100.00000 0 21224820.036 13344484.311 4733900.443 10 0 59320 36000.00000 0 20592177.468 12872357.625 7831168.798 10 0 59320 36900.00000 0 19580183.140 12313544.683 10776447.813 10 0 59320 37800.00000 0 18196641.265 11725905.016 13512618.574 10 0 59320 38700.00000 0 16462471.506 11165838.517 15986640.277 10 0 59320 39600.00000 0 14411028.925 10685752.128 18150572.565 10 0 59320 40500.00000 0 12086916.938 10331710.682 19962497.515 10 0 59320 41400.00000 0 9544342.405 10141370.524 21387324.224 10 0 59320 42300.00000 0 6845080.868 10142282.421 22397461.215 10 0 59320 43200.00000 0 4056135.713 10350634.706 22973344.603 10 0 59320 44100.00000 0 1247187.477 10770489.161 23103812.611 10 0 59320 45000.00000 0 -1512062.017 11393541.623 22786319.745 10 0 59320 45900.00000 0 -4154541.880 12199417.591 22026986.879 10 0 59320 46800.00000 0 -6618352.154 13156490.923 20840486.220 10 0 59320 47700.00000 0 -8849087.492 14223192.055 19249763.062 10 0 59320 48600.00000 0 -10801849.264 15349751.831 17285599.067 10 0 59320 49500.00000 0 -12442863.566 16480308.815 14986024.614 10 0 59320 50400.00000 0 -13750638.488 17555292.563 12395590.622 10 0 59320 51300.00000 0 -14716613.071 18513983.495 9564512.942 10 0 59320 52200.00000 0 -15345271.249 19297142.252 6547704.951 10 0 59320 53100.00000 0 -15653716.302 19849597.946 3403716.508 10 0 59320 54000.00000 0 -15670723.940 20122686.041 193599.404 10 0 59320 54900.00000 0 -15435314.060 20076432.383 -3020278.761 10 0 59320 55800.00000 0 -14994901.718 19681390.412 -6175448.973 10 0 59320 56700.00000 0 -14403105.626 18920052.742 -9210559.417 10 0 59320 57600.00000 0 -13717307.166 17787776.066 -12066573.980 10 0 59320 58500.00000 0 -12996063.795 16293179.137 -14687926.573 10 0 59320 59400.00000 0 -12296486.767 14457995.508 -17023608.135 10 0 59320 60300.00000 0 -11671694.744 12316385.932 -19028164.578 10 0 59320 61200.00000 0 -11168451.604 9913738.219 -20662585.751 10 0 59320 62100.00000 0 -10825088.765 7305003.827 -21895067.848 10 0 59320 63000.00000 0 -10669800.301 4552639.977 -22701634.329 10 0 59320 63900.00000 0 -10719383.134 1724242.795 -23066603.263 10 0 59320 64800.00000 0 -10978475.716 -1110030.307 -22982892.154 10 0 59320 65700.00000 0 -11439327.414 -3880141.984 -22452154.491 10 0 59320 66600.00000 0 -12082108.363 -6518848.718 -21484745.532 10 0 59320 67500.00000 0 -12875746.661 -8964256.116 -20099518.167 10 0 59320 68400.00000 0 -13779257.532 -11162149.954 -18323452.915 10 0 59320 69300.00000 0 -14743508.246 -13068006.499 -16191129.371 10 0 59320 70200.00000 0 -15713344.166 -14648599.194 -13744049.479 10 0 59320 71100.00000 0 -16629986.002 -15883135.796 -11029825.862 10 0 59320 72000.00000 0 -17433596.836 -16763879.621 -8101251.277 10 0 59320 72900.00000 0 -18065910.266 -17296230.419 -5015267.533 10 0 59320 73800.00000 0 -18472808.422 -17498263.066 -1831854.261 10 0 59320 74700.00000 0 -18606740.729 -17399745.034 1387140.317 10 0 59320 75600.00000 0 -18428881.097 -17040675.595 4579203.488 10 0 59320 76500.00000 0 -17910932.294 -16469409.713 7682373.190 10 0 59320 77400.00000 0 -17036501.309 -15740446.889 10636440.212 10 0 59320 78300.00000 0 -15801987.621 -14911979.128 13384113.989 10 0 59320 79200.00000 0 -14216946.841 -14043301.974 15872129.491 10 0 59320 80100.00000 0 -12303914.241 -13192197.957 18052273.977 10 0 59320 81000.00000 0 -10097695.193 -12412402.560 19882314.327 10 0 59320 81900.00000 0 -7644151.603 -11751258.958 21326807.790 10 0 59320 82800.00000 0 -4998534.327 -11247659.601 22357781.229 10 0 59320 83700.00000 0 -2223430.035 -10930360.431 22955266.683 10 0 59320 84600.00000 0 613593.263 -10816737.902 23107683.678 10 0 59320 85500.00000 0 3442545.466 -10912040.447 22812061.477 10 0 59321 0.00000 0 6193673.668 -11209165.479 22074097.341 10 0 59321 900.00000 0 8800112.652 -11688971.545 20908049.521 10 0 59321 1800.00000 0 11200418.042 -12321112.115 19336467.111 10 0 59321 2700.00000 0 13340877.740 -13065357.716 17389760.798 10 0 59321 3600.00000 0 15177507.621 -13873350.438 15105622.388 10 0 59321 4500.00000 0 16677648.302 -14690718.598 12528303.147 10 0 59321 5400.00000 0 17821097.542 -15459462.992 9707763.999 10 0 59321 6300.00000 0 18600731.246 -16120514.859 6698713.108 10 0 59321 7200.00000 0 19022587.267 -16616357.958 3559548.871 10 0 59321 8100.00000 0 19105408.638 -16893604.006 351228.421 10 0 59321 9000.00000 0 18879665.574 -16905412.289 -2863916.555 10 0 59321 9900.00000 0 18386097.491 -16613650.425 -6023393.383 10 0 59321 10800.00000 0 17673836.714 -15990703.827 -9065767.380 10 0 59321 11700.00000 0 16798193.346 -15020856.110 -11931861.909 10 0 59321 12600.00000 0 15818195.183 -13701180.618 -14565915.395 10 0 59321 13500.00000 0 14793987.090 -12041903.890 -16916672.124 10 0 59321 14400.00000 0 13784200.284 -10066224.374 -18938385.008 10 0 59321 15300.00000 0 12843403.022 -7809592.499 -20591710.278 10 0 59321 16200.00000 0 12019740.789 -5318481.139 -21844476.428 10 0 59321 17100.00000 0 11352865.817 -2648696.895 -22672312.322 10 0 59321 18000.00000 0 10872243.461 136698.025 -23059122.253 10 0 59321 18900.00000 0 10595906.795 2969767.212 -22997398.845 10 0 59321 19800.00000 0 10529711.802 5780286.056 -22488367.889 10 0 59321 20700.00000 0 10667124.255 8498424.938 -21541962.473 10 0 59321 21600.00000 0 10989546.889 11057418.366 -20176627.059 10 0 59321 22500.00000 0 11467172.640 13396109.388 -18418955.437 10 0 59321 23400.00000 0 12060327.451 15461263.727 -16303169.693 10 0 59321 24300.00000 0 12721245.524 17209557.914 -13870450.421 10 0 59321 25200.00000 0 13396201.508 18609159.260 -11168131.316 10 0 59321 26100.00000 0 14027909.111 19640832.648 -8248774.028 10 0 59321 27000.00000 0 14558084.257 20298529.022 -5169141.582 10 0 59321 27900.00000 0 14930064.013 20589432.310 -1989090.622 10 0 59321 28800.00000 0 15091370.170 20533464.202 1229595.452 10 0 59321 29700.00000 0 14996108.756 20162269.112 4424409.315 10 0 59321 30600.00000 0 14607103.819 19517723.398 7533334.798 10 0 59321 31500.00000 0 13897675.150 18650032.866 10496050.178 10 0 59321 32400.00000 0 12852984.734 17615499.639 13255096.223 10 0 59321 33300.00000 0 11470894.978 16474053.109 15756986.437 10 0 59321 34200.00000 0 9762302.340 15286649.254 17953238.190 10 0 59321 35100.00000 0 7750931.905 14112647.675 19801305.382 10 0 59321 36000.00000 0 5472600.912 13007276.255 21265395.294 10 0 59321 36900.00000 0 2973981.231 12019289.304 22317154.662 10 0 59321 37800.00000 0 310911.413 11188916.670 22936212.593 10 0 59321 38700.00000 0 -2453672.677 10546188.918 23110570.640 10 0 59321 39600.00000 0 -5252103.890 10109707.976 22836833.067 10 0 59321 40500.00000 0 -8014549.721 9885914.042 22120273.227 10 0 59321 41400.00000 0 -10671673.196 9868879.036 20974734.765 10 0 59321 42300.00000 0 -13157279.576 10040635.035 19422369.236 10 0 59321 43200.00000 0 -15410840.388 10372024.017 17493214.621 10 0 59321 44100.00000 0 -17379790.963 10824033.512 15224621.981 10 0 59321 45000.00000 0 -19021506.655 11349562.505 12660540.431 10 0 59321 45900.00000 0 -20304876.008 11895543.757 9850673.233 10 0 59321 46800.00000 0 -21211405.480 12405333.563 6849520.456 10 0 59321 47700.00000 0 -21735809.634 12821268.386 3715326.107 10 0 59321 48600.00000 0 -21886061.977 13087280.370 508949.736 10 0 59321 49500.00000 0 -21682904.340 13151460.861 -2707315.752 10 0 59321 50400.00000 0 -21158835.285 12968462.864 -5870956.842 10 0 59321 51300.00000 0 -20356620.130 12501639.830 -8920458.711 10 0 59321 52200.00000 0 -19327385.517 11724829.032 -11796506.816 10 0 59321 53100.00000 0 -18128378.990 10623702.695 -14443146.542 10 0 59321 54000.00000 0 -16820488.586 9196628.280 -16808877.751 10 0 59321 54900.00000 0 -15465627.322 7455000.023 -18847662.308 10 0 59321 55800.00000 0 -14124093.365 5423026.277 -20519824.450 10 0 59321 56700.00000 0 -12852017.438 3136980.180 -21792826.219 10 0 59321 57600.00000 0 -11699005.159 643943.715 -22641902.743 10 0 59321 58500.00000 0 -10706073.719 -1999903.232 -23050544.989 10 0 59321 59400.00000 0 -9903969.568 -4731378.187 -23010820.755 10 0 59321 60300.00000 0 -9311937.596 -7482689.082 -22523527.795 10 0 59321 61200.00000 0 -8936993.109 -10184025.575 -21598176.303 10 0 59321 62100.00000 0 -8773726.571 -12766241.215 -20252801.238 10 0 59321 63000.00000 0 -8804648.584 -15163515.120 -18513608.254 10 0 59321 63900.00000 0 -9001059.740 -17315882.562 -16414460.241 10 0 59321 64800.00000 0 -9324407.797 -19171529.467 -13996214.545 10 0 59321 65700.00000 0 -9728074.069 -20688755.646 -11305923.856 10 0 59321 66600.00000 0 -10159512.742 -21837525.403 -8395916.557 10 0 59321 67500.00000 0 -10562651.965 -22600541.570 -5322774.662 10 0 59321 68400.00000 0 -10880454.469 -22973799.046 -2146229.573 10 0 59321 69300.00000 0 -11057528.814 -22966595.763 1072002.396 10 0 59321 70200.00000 0 -11042680.279 -22601001.921 4269421.608 10 0 59321 71100.00000 0 -10791293.120 -21910811.063 7383960.112 10 0 59321 72000.00000 0 -10267443.155 -20940018.253 10355186.031 10 0 59321 72900.00000 0 -9445651.219 -19740890.409 13125473.830 10 0 59321 73800.00000 0 -8312203.247 -18371710.652 15641117.872 10 0 59321 74700.00000 0 -6865981.128 -16894291.928 17853367.860 10 0 59321 75600.00000 0 -5118768.977 -15371364.419 19719366.748 10 0 59321 76500.00000 0 -3095021.386 -13863946.093 21202973.647 10 0 59321 77400.00000 0 -831102.616 -12428806.085 22275456.656 10 0 59321 78300.00000 0 1625972.489 -11116126.310 22916043.105 10 0 59321 79200.00000 0 4220244.636 -9967458.199 23112317.372 10 0 59321 80100.00000 0 6888893.516 -9014059.035 22860459.178 10 0 59321 81000.00000 0 9564613.492 -8275676.457 22165318.120 10 0 59321 81900.00000 0 12178184.344 -7759831.161 21040322.989 10 0 59321 82800.00000 0 14661131.752 -7461627.212 19507227.364 10 0 59321 83700.00000 0 16948368.300 -7364097.530 17595695.751 10 0 59321 84600.00000 0 18980706.385 -7439069.931 15342737.425 10 0 59321 85500.00000 0 20707139.168 -7648517.457 12791997.995 10 0 59322 0.00000 0 22086795.151 -7946336.393 9992921.447 10 0 59322 900.00000 0 23090484.813 -8280477.234 6999797.607 10 0 59322 1800.00000 0 23701775.240 -8595339.137 3870713.801 10 0 59322 2700.00000 0 23917546.306 -8834326.193 666429.336 10 0 59322 3600.00000 0 23748006.401 -8942457.771 -2550804.570 10 0 59322 4500.00000 0 23216165.408 -8868921.498 -5718456.590 10 0 59322 5400.00000 0 22356787.617 -8569460.197 -8774934.847 10 0 59322 6300.00000 0 21214868.159 -8008490.535 -11660789.895 10 0 59322 7200.00000 0 19843697.207 -7160862.417 -14319876.957 10 0 59322 8100.00000 0 18302593.669 -6013183.281 -16700454.149 10 0 59322 9000.00000 0 16654404.019 -4564649.749 -18756194.737 10 0 59322 9900.00000 0 14962871.862 -2827350.081 -20447093.150 10 0 59322 10800.00000 0 13289989.150 -826023.135 -21740246.880 10 0 59322 11700.00000 0 11693440.554 1402717.459 -22610498.914 10 0 59322 12600.00000 0 10224248.495 3811662.531 -23040928.152 10 0 59322 13500.00000 0 8924717.541 6344737.550 -23023178.453 10 0 59322 14400.00000 0 7826764.094 8939112.242 -22557620.039 10 0 59322 15300.00000 0 6950700.949 11527602.203 -21653340.312 10 0 59322 16200.00000 0 6304526.936 14041262.799 -20327964.422 10 0 59322 17100.00000 0 5883750.503 16412067.580 -18607309.179 10 0 59322 18000.00000 0 5671753.605 18575559.761 -16524877.160 10 0 59322 18900.00000 0 5640679.365 20473366.424 -14121200.948 10 0 59322 19800.00000 0 5752804.930 22055470.877 -11443050.322 10 0 59322 20700.00000 0 5962340.429 23282148.532 -8542518.108 10 0 59322 21600.00000 0 6217576.976 24125485.940 -5476002.681 10 0 59322 22500.00000 0 6463291.908 24570420.098 -2303107.271 10 0 59322 23400.00000 0 6643308.703 24615255.257 914522.039 10 0 59322 24300.00000 0 6703102.523 24271636.607 4114396.586 10 0 59322 25200.00000 0 6592340.590 23563982.953 7234399.961 10 0 59322 26100.00000 0 6267249.514 22528403.252 10213993.396 10 0 59322 27000.00000 0 5692709.204 21211143.495 12995388.181 10 0 59322 27900.00000 0 4843984.672 19666629.839 15524662.460 10 0 59322 28800.00000 0 3708022.492 17955190.661 17752800.949 10 0 59322 29700.00000 0 2284256.996 16140553.191 19636638.042 10 0 59322 30600.00000 0 584891.828 14287219.420 21139686.752 10 0 59322 31500.00000 0 -1365355.553 12457830.639 22232838.250 10 0 59322 32400.00000 0 -3530036.653 10710629.981 22894919.404 10 0 59322 33300.00000 0 -5862250.477 9097127.941 23113098.289 10 0 59322 34200.00000 0 -8306365.745 7660067.276 22883130.473 10 0 59322 35100.00000 0 -10800116.598 6431771.017 22209441.654 10 0 59322 36000.00000 0 -13276986.153 5432941.490 21105045.099 10 0 59322 36900.00000 0 -15668780.200 4671959.585 19591295.167 10 0 59322 37800.00000 0 -17908285.438 4144712.850 17697481.128 10 0 59322 38700.00000 0 -19931902.790 3834959.053 15460268.228 10 0 59322 39600.00000 0 -21682146.947 3715209.750 12922995.930 10 0 59322 40500.00000 0 -23109908.479 3748096.594 10134845.868 10 0 59322 41400.00000 0 -24176384.301 3888162.881 7149894.746 10 0 59322 42300.00000 0 -24854595.586 4084004.835 4026069.845 10 0 59322 43200.00000 0 -25130429.287 4280672.123 824026.991 10 0 59322 44100.00000 0 -25003159.025 4422225.892 -2394027.459 10 0 59322 45000.00000 0 -24485423.051 4454345.606 -5565547.453 10 0 59322 45900.00000 0 -23602659.609 4326873.621 -8628867.013 10 0 59322 46800.00000 0 -22392022.928 3996188.743 -11524404.594 10 0 59322 47700.00000 0 -20900825.337 3427307.122 -14195827.867 10 0 59322 48600.00000 0 -19184570.794 2595620.197 -16591155.564 10 0 59322 49500.00000 0 -17304662.612 1488194.755 -18663774.373 10 0 59322 50400.00000 0 -15325881.972 104578.792 -20373350.545 10 0 59322 51300.00000 0 -13313743.164 -1542922.299 -21686618.194 10 0 59322 52200.00000 0 -11331836.686 -3429512.314 -22578028.825 10 0 59322 53100.00000 0 -9439271.706 -5518703.547 -23030249.424 10 0 59322 54000.00000 0 -7688324.891 -7763616.525 -23034499.559 10 0 59322 54900.00000 0 -6122393.755 -10108726.640 -22590721.105 10 0 59322 55800.00000 0 -4774339.687 -12491985.337 -21707577.443 10 0 59322 56700.00000 0 -3665289.239 -14847227.773 -20402282.328 10 0 59322 57600.00000 0 -2803942.876 -17106766.817 -18700261.850 10 0 59322 58500.00000 0 -2186418.959 -19204065.237 -16634656.177 10 0 59322 59400.00000 0 -1796638.162 -21076374.671 -14245670.873 10 0 59322 60300.00000 0 -1607230.665 -22667231.282 -11579790.476 10 0 59322 61200.00000 0 -1580926.520 -23928703.837 -8688869.893 10 0 59322 62100.00000 0 -1672369.105 -24823300.422 -5629121.529 10 0 59322 63000.00000 0 -1830273.813 -25325454.332 -2460018.160 10 0 59322 63900.00000 0 -1999839.607 -25422527.290 756866.578 10 0 59322 64800.00000 0 -2125310.451 -25115288.657 3959057.144 10 0 59322 65700.00000 0 -2152577.507 -24417851.218 7084390.772 10 0 59322 66600.00000 0 -2031711.443 -23357067.083 10072223.856 10 0 59322 67500.00000 0 -1719317.367 -21971409.831 12864606.524 10 0 59322 68400.00000 0 -1180612.632 -20309390.436 15407402.632 10 0 59322 69300.00000 0 -391139.621 -18427573.860 17651333.728 10 0 59322 70200.00000 0 661958.839 -16388279.574 19552927.293 10 0 59322 71100.00000 0 1979155.478 -14257062.043 21075351.664 10 0 59322 72000.00000 0 3548279.289 -12100076.076 22189122.245 10 0 59322 72900.00000 0 5344792.573 -9981436.240 22872666.291 10 0 59322 73800.00000 0 7332593.670 -7960679.422 23112736.119 10 0 59322 74700.00000 0 9465312.960 -6090435.217 22904663.371 10 0 59322 75600.00000 0 11688049.488 -4414399.861 22252449.791 10 0 59322 76500.00000 0 13939477.304 -2965696.909 21168692.782 10 0 59322 77400.00000 0 16154235.212 -1765691.892 19674346.920 10 0 59322 78300.00000 0 18265501.825 -823309.390 17798325.427 10 0 59322 79200.00000 0 20207649.856 -134880.280 15576948.497 10 0 59322 80100.00000 0 21918869.812 315475.003 13053248.172 10 0 59322 81000.00000 0 23343654.234 554943.644 10276142.288 10 0 59322 81900.00000 0 24435038.870 620636.299 7299492.500 10 0 59322 82800.00000 0 25156506.844 557779.999 4181064.046 10 0 59322 83700.00000 0 25483475.641 417564.542 981406.934 10 0 59322 84600.00000 0 25404303.865 254733.661 -2237319.901 10 0 59322 85500.00000 0 24920774.777 125023.203 -5412558.392 99